Location: Theydon Bois
(51.6750°N, 0.1050°E)
Time: 22:10:21
(UTC+01:00)

ISS - Visible Passes

Search period start: 18 October 2019 00:00
Search period end: 27 October 2019 23:00
Orbit: 411 x 421 km, 51.6° (Epoch: 19 October)

Date Brightness Start Highest point End Pass type
(mag) Time Alt. Az. Time Alt. Az. Time Alt. Az.
25 Oct -0.9 06:36:22 10° S 06:38:38 17° SE 06:40:54 10° E visible
26 Oct -0.7 05:49:05 10° SSE 05:50:16 11° SE 05:51:26 10° ESE visible
27 Oct -2.1 05:34:47 10° SW 05:37:50 32° SSE 05:40:52 10° E visible
